Location: Burleson Fire Department Station 2
(32.5391°N, 97.3075°W)
Time: 00:34:43
(UTC+00:00)

NOAA 15 - Pass Details

Date: 22 December 2025
Orbit: 793 x 810 km, 98.5° (Epoch: 20 January)

Event Time Altitude Azimuth Distance (km) Brightness Sun altitude
Rises 00:22:56 0° 145° (SE) 3,310 7.6 -11.4°
Reaches altitude 10° 00:25:25 10° 136° (SE) 2,381 6.8 -11.9°
Maximum altitude 00:30:12 36° 71° (ENE) 1,251 5.1 -12.8°
Drops below altitude 10° 00:34:58 10° 6° (N) 2,384 6.8 -13.8°
Sets 00:37:27 0° 358° (N) 3,315 7.6 -14.3°
